Location: ?ern� Novina
(50.6762°N, 14.8696°E)
Time: 13:38:36
(UTC+00:00)

Cosmos 1898 Rocket - Pass Details

Date: 03 March 2021
Orbit: 753 x 784 km, 74.0° (Epoch: 10 April)

Event Time Altitude Azimuth Distance (km) Brightness Sun altitude
Rises 19:51:45 0° 336° (NNW) 3,229 7.5 -29.4°
Reaches altitude 10° 19:54:08 10° 337° (NNW) 2,303 6.6 -29.7°
Enters shadow 19:57:55 49° 346° (NNW) 988 4.2 -30.3°
